Location: Monrovia
(34.7865°N, 86.7139°W)
Time: 14:56:43
(UTC+00:00)

Cosmos 1842 Rocket - Pass Details

Date: 14 July 2020
Orbit: 605 x 634 km, 82.5° (Epoch: 12 August)

Event Time Altitude Azimuth Distance (km) Brightness Sun altitude
Rises 03:16:53 0° 346° (NNW) 2,866 8.1 -22.5°
Reaches altitude 10° 03:19:09 10° 341° (NNW) 1,957 7.1 -22.8°
Maximum altitude 03:23:19 49° 267° (W) 782 4.2 -23.4°
Enters shadow 03:24:16 41° 227° (SW) 882 4.2 -23.5°
